Wind_Speed
57 57 56 56 57 58 58 59 60 62 63 64 65 65 66 68 69 71 72 73 74 74 75 76 76 77 77 77 76 76 76 76 75 75 74 74 74 73 73 73 73 73
56 57 57 58 59 59 60 61 62 63 64 65 66 67 68 70 71 73 74 75 75 76 76 77 77 77 77 76 76 75 75 74 74 73 73 72 72 72 72 72 72 72
57 58 59 60 60 61 62 62 63 64 66 67 68 69 70 72 73 75 75 76 77 77 78 78 77 77 76 75 74 74 73 73 72 72 71 71 71 71 71 71 72 73
59 60 61 61 61 62 63 64 65 66 68 69 70 71 73 74 75 76 77 77 78 78 78 78 77 76 75 74 73 72 72 71 71 71 71 70 70 71 71 72 73 74
61 61 61 62 62 63 64 65 67 68 69 70 72 73 75 76 77 78 78 78 78 78 78 77 75 74 73 72 71 71 70 70 70 70 71 71 71 72 72 73 74 75
62 62 62 62 63 64 66 68 69 70 71 72 74 76 77 78 79 79 79 78 78 78 76 75 73 72 71 70 70 70 70 70 70 71 71 72 72 73 74 75 76 77
63 63 63 64 65 67 69 70 71 72 73 75 76 78 79 79 80 80 79 78 78 76 74 72 71 70 70 70 70 70 70 70 71 71 72 73 74 75 75 76 77 78
65 65 65 66 67 69 71 72 74 75 77 78 79 80 80 81 81 80 79 78 77 75 73 72 71 70 70 70 70 70 71 71 72 73 73 74 75 77 78 79 80 81
67 67 68 69 70 72 74 75 77 78 79 80 80 81 82 82 82 80 79 78 76 74 72 71 70 70 70 70 70 71 71 72 73 74 75 77 78 80 81 82 83 84
68 69 70 71 73 75 77 79 80 81 81 81 82 82 83 82 81 80 78 77 74 73 72 71 70 70 70 71 71 72 73 74 75 77 79 80 82 83 84 85 85 85
70 71 72 74 76 78 80 82 82 82 82 83 83 83 83 82 80 79 77 75 73 72 71 71 71 71 72 72 73 74 75 77 78 80 82 83 84 84 83 83 82 81
71 73 74 77 79 81 82 83 83 83 83 83 83 83 82 81 80 78 76 74 73 72 72 72 72 73 73 74 75 76 78 80 81 83 83 83 82 80 79 79 79 79
73 75 77 79 81 82 83 84 84 84 83 83 82 81 80 80 78 76 75 73 73 72 72 73 73 74 75 76 77 79 80 82 82 81 79 78 77 77 77 77 77 77
74 77 79 81 82 83 84 84 84 83 83 82 81 80 79 78 77 75 74 73 73 73 74 74 75 76 77 78 80 81 81 80 77 75 74 74 75 75 76 75 74 73
76 79 81 82 83 83 84 83 83 82 82 81 80 79 78 77 75 74 74 73 74 74 75 76 77 78 79 80 80 79 77 74 72 71 72 73 73 73 72 71 70 69
78 80 82 83 83 83 83 82 81 81 80 79 78 77 76 75 74 74 74 74 75 76 77 77 78 79 79 78 76 73 71 70 70 70 71 71 70 70 68 67 65 64
80 82 82 82 82 82 82 81 80 79 78 77 76 75 74 74 74 74 74 75 76 77 77 78 79 78 76 73 71 69 68 69 69 69 69 68 67 66 64 63 62 61
81 81 82 81 81 81 80 79 78 77 76 75 74 73 73 74 74 75 76 77 77 77 78 78 76 73 70 68 68 68 68 68 67 67 66 65 64 62 61 60 59 59
81 81 80 80 80 79 78 77 76 75 74 73 72 73 73 74 75 76 77 77 77 77 76 74 70 68 67 67 67 68 68 67 65 65 64 63 61 60 58 58 57 57
80 79 79 79 78 77 76 75 73 72 71 71 72 72 73 74 76 77 77 77 76 74 71 67 66 66 66 66 67 67 67 65 64 63 62 61 59 58 57 56 56 56
79 78 78 77 76 75 73 72 71 70 71 71 72 73 74 75 76 77 76 75 72 68 65 64 66 67 66 66 67 67 66 64 63 62 61 59 58 57 56 55 55 56
78 77 76 74 73 72 71 70 69 70 71 72 73 74 75 76 76 75 73 69 65 63 63 65 66 66 66 66 66 66 65 63 62 61 60 58 57 56 55 55 55 55
77 75 72 71 70 70 69 69 69 70 71 73 74 75 75 75 73 70 66 63 62 63 64 65 65 66 66 66 66 65 64 62 61 60 59 57 56 55 55 55 55 55
73 71 70 69 69 69 68 69 70 71 72 74 74 75 74 71 67 63 61 61 62 64 65 65 65 66 66 66 65 64 63 62 60 59 58 56 56 55 55 55 56 56
70 69 68 68 68 68 69 70 71 72 73 74 74 73 69 64 61 60 60 62 63 64 65 65 65 66 66 65 64 63 62 61 60 58 57 56 56 55 55 56 57 57
68 68 68 68 68 69 70 71 72 73 74 73 71 67 62 59 59 60 61 62 64 65 66 65 65 65 65 64 63 63 62 60 58 57 57 56 56 56 56 56 57 58
Wind_Direction
295 297 298 298 298 299 299 300 301 302 302 302 302 301 301 300 300 300 299 299 299 299 299 299 298 298 297 296 296 295 294 294 293 293 292 292 292 291 290 290 289 289
297 298 298 298 299 300 301 302 303 303 303 303 302 301 301 300 300 300 299 300 300 300 300 299 298 298 297 296 296 295 294 294 293 293 293 292 292 291 291 290 290 289
298 298 299 299 300 301 302 303 304 304 303 302 302 301 301 301 300 300 301 301 301 301 300 299 298 298 297 296 296 295 294 294 293 293 293 292 292 292 291 290 290 289
298 299 299 300 301 302 303 304 304 304 303 303 302 302 302 301 301 302 302 302 301 301 300 299 298 298 297 296 295 295 294 294 293 293 293 292 292 291 291 291 290 290
298 298 299 300 302 303 304 304 304 304 303 303 303 303 302 302 303 303 303 302 301 300 299 298 298 297 296 296 295 294 294 294 294 293 293 293 293 292 292 292 291 291
297 298 299 301 302 304 305 305 305 304 304 304 304 303 303 303 303 303 302 301 300 299 299 298 297 297 296 295 295 295 294 294 294 294 294 294 293 293 293 293 292 292
297 298 300 301 303 305 305 306 306 305 305 305 304 304 304 303 303 302 301 300 299 299 298 298 297 296 296 296 295 295 295 295 295 295 294 294 294 294 293 293 293 292
297 298 300 303 305 306 307 307 307 306 306 305 305 304 304 303 302 302 301 300 299 299 298 297 297 297 297 297 296 296 296 296 295 295 295 295 295 295 294 294 294 293
297 299 302 305 306 307 308 308 307 307 306 305 305 304 303 302 302 301 300 300 299 299 299 298 298 298 297 297 296 296 296 296 296 296 297 297 297 296 296 296 295 295
298 301 304 306 308 308 308 308 307 306 306 305 304 303 302 301 301 300 300 300 300 299 299 299 298 298 297 297 297 297 298 298 298 298 298 298 298 298 298 297 297 296
300 303 305 307 308 308 308 307 306 305 305 304 303 302 301 301 300 300 300 300 300 299 299 298 298 298 298 298 298 299 299 300 300 300 300 300 300 299 299 298 298 297
302 304 305 307 307 308 307 306 305 304 303 302 302 301 300 300 300 300 300 300 299 299 299 299 298 299 299 299 300 301 301 301 301 301 301 301 301 300 300 299 299 298
302 304 305 306 307 306 305 304 304 303 302 301 301 300 300 299 300 300 300 299 299 299 299 299 299 300 300 301 301 302 302 302 302 302 302 302 301 301 300 300 300 299
302 303 305 306 306 305 303 303 302 301 301 300 300 299 299 299 299 299 299 299 299 299 299 300 300 301 301 302 302 303 303 303 303 303 302 302 302 301 301 301 301 301
302 303 304 305 304 303 302 302 301 300 300 299 299 299 299 299 299 299 299 299 299 300 300 301 301 301 302 302 303 303 303 304 303 303 303 302 303 303 302 302 302 302
302 303 304 303 302 301 300 300 299 299 299 299 298 298 298 298 298 298 299 299 300 301 301 301 301 301 302 302 303 303 304 304 303 303 304 304 304 304 304 303 303 303
302 303 302 302 300 300 299 299 298 298 298 298 298 298 298 298 298 299 299 300 301 301 301 301 301 301 302 302 303 304 304 304 304 305 305 305 305 305 305 304 304 303
302 301 301 300 299 298 298 298 298 298 298 297 297 297 297 298 299 300 300 301 301 301 300 300 301 301 302 303 304 304 304 304 306 306 306 306 306 306 305 304 303 303
301 300 299 298 297 297 297 297 297 297 297 297 297 297 298 298 299 300 300 300 300 300 300 300 301 301 303 304 304 304 304 306 306 307 307 307 307 306 305 304 303 303
299 298 297 297 297 297 297 297 297 297 296 296 297 297 298 299 300 300 300 299 299 299 300 300 301 302 304 304 304 304 305 306 307 307 308 307 307 306 305 304 304 305
297 296 296 296 297 297 297 296 296 296 296 296 297 298 299 299 299 299 298 298 298 299 300 300 301 303 304 304 304 304 306 306 307 307 307 307 306 305 305 306 306 307
296 296 296 296 296 296 295 295 295 295 296 296 297 298 298 298 298 297 297 298 298 299 300 301 302 303 303 303 304 305 305 306 306 306 306 306 306 306 306 307 308 308
295 296 296 295 295 294 294 295 295 295 296 297 297 298 297 297 297 297 297 298 299 300 301 301 302 302 303 303 304 304 305 305 305 305 305 306 306 306 307 308 308 309
295 295 294 294 293 294 294 294 295 295 296 297 297 297 296 296 296 296 297 298 299 300 301 301 302 302 302 303 304 304 304 304 304 305 305 305 305 306 307 308 308 309
294 293 293 293 293 293 294 294 295 296 296 296 296 295 295 296 296 297 298 299 299 300 300 301 302 302 302 303 303 303 303 303 304 304 304 304 305 306 307 308 309 310
292 292 292 292 293 293 294 295 296 296 296 295 295 295 295 296 296 297 298 298 299 300 301 301 302 302 302 302 302 302 302 303 303 304 304 304 305 306 307 308 309 310
Height
5772 5770 5768 5766 5764 5762 5760 5758 5755 5753 5750 5747 5744 5741 5738 5735 5731 5728 5724 5720 5717 5713 5710 5706 5702 5698 5695 5691 5688 5684 5681 5677 5674 5671 5667 5665 5662 5659 5657 5654 5651 5648
5765 5763 5761 5759 5757 5755 5752 5750 5748 5745 5742 5739 5736 5733 5729 5726 5722 5719 5715 5711 5708 5704 5700 5696 5692 5689 5685 5682 5678 5674 5671 5667 5664 5661 5658 5655 5653 5650 5648 5645 5642 5639
5758 5756 5754 5751 5749 5747 5744 5742 5739 5737 5733 5730 5727 5724 5721 5717 5713 5710 5706 5702 5698 5694 5690 5686 5683 5679 5676 5672 5669 5665 5661 5658 5655 5652 5650 5647 5644 5641 5638 5636 5633 5630
5751 5748 5746 5744 5741 5739 5737 5734 5731 5728 5725 5721 5718 5715 5711 5708 5704 5700 5696 5692 5688 5684 5680 5677 5673 5670 5666 5663 5660 5656 5653 5649 5646 5643 5640 5638 5635 5632 5629 5626 5623 5620
5743 5741 5738 5736 5734 5731 5729 5726 5723 5719 5716 5712 5709 5706 5702 5698 5694 5691 5687 5683 5679 5675 5671 5667 5664 5661 5657 5654 5650 5647 5644 5641 5638 5634 5631 5628 5625 5623 5620 5616 5613 5610
5735 5733 5731 5728 5726 5723 5720 5717 5714 5710 5707 5703 5700 5696 5692 5689 5685 5681 5678 5674 5670 5666 5662 5659 5655 5651 5648 5645 5641 5638 5635 5632 5629 5625 5622 5619 5615 5613 5610 5607 5604 5600
5728 5725 5723 5721 5718 5715 5711 5708 5704 5701 5697 5694 5690 5687 5683 5679 5675 5672 5668 5664 5660 5657 5654 5650 5646 5643 5639 5636 5632 5629 5626 5623 5620 5616 5613 5609 5606 5603 5600 5597 5594 5590
5720 5717 5715 5712 5709 5705 5702 5698 5695 5691 5688 5685 5681 5677 5674 5670 5666 5662 5659 5655 5651 5648 5645 5641 5637 5634 5630 5626 5623 5620 5617 5613 5610 5607 5603 5600 5597 5594 5590 5587 5584 5580
5711 5709 5705 5702 5699 5696 5692 5689 5686 5682 5679 5676 5672 5668 5664 5660 5656 5653 5649 5646 5642 5639 5635 5631 5628 5624 5621 5617 5614 5611 5608 5605 5601 5598 5594 5591 5587 5583 5580 5576 5572 5568
5702 5699 5696 5693 5689 5686 5683 5680 5676 5673 5670 5667 5663 5659 5655 5651 5647 5643 5640 5636 5633 5629 5626 5622 5619 5615 5612 5608 5605 5602 5599 5595 5592 5588 5584 5581 5577 5573 5568 5564 5560 5555
5693 5690 5687 5683 5680 5677 5674 5671 5667 5664 5661 5658 5654 5650 5645 5641 5638 5634 5631 5627 5624 5620 5617 5613 5610 5606 5603 5600 5596 5593 5590 5586 5582 5578 5574 5570 5566 5561 5557 5553 5548 5544
5684 5681 5678 5675 5672 5669 5665 5662 5658 5655 5652 5648 5644 5640 5636 5632 5628 5625 5622 5618 5615 5611 5608 5604 5600 5597 5594 5590 5587 5584 5580 5576 5572 5568 5563 5559 5554 5550 5546 5541 5537 5533
5676 5672 5669 5667 5664 5660 5656 5653 5650 5646 5642 5638 5634 5630 5626 5622 5619 5616 5613 5609 5606 5602 5598 5595 5592 5588 5584 5581 5577 5574 5570 5566 5562 5558 5553 5549 5544 5540 5535 5531 5527 5523
5667 5664 5662 5659 5656 5651 5647 5644 5640 5637 5632 5628 5624 5621 5617 5613 5610 5607 5604 5600 5597 5593 5589 5586 5583 5579 5575 5571 5567 5564 5560 5557 5553 5549 5544 5540 5535 5531 5526 5521 5517 5513
5659 5656 5653 5650 5646 5642 5638 5635 5631 5627 5623 5619 5615 5612 5608 5604 5601 5598 5595 5591 5587 5584 5580 5577 5573 5569 5565 5561 5558 5554 5551 5548 5544 5540 5536 5531 5527 5522 5517 5513 5508 5505
5651 5648 5644 5641 5637 5633 5629 5626 5622 5618 5614 5610 5607 5603 5599 5596 5592 5589 5586 5582 5578 5575 5571 5567 5563 5559 5556 5552 5548 5545 5543 5539 5536 5532 5527 5523 5519 5514 5509 5505 5501 5497
5642 5638 5635 5631 5627 5623 5620 5616 5612 5609 5605 5601 5598 5594 5590 5587 5584 5580 5577 5573 5570 5566 5562 5557 5553 5550 5546 5543 5540 5537 5534 5531 5527 5523 5519 5514 5510 5506 5502 5498 5494 5490
5633 5629 5625 5621 5618 5614 5611 5607 5603 5600 5597 5593 5589 5586 5582 5578 5575 5571 5568 5564 5561 5557 5553 5548 5544 5540 5538 5534 5531 5528 5525 5523 5519 5515 5511 5506 5502 5498 5494 5491 5488 5484
5623 5619 5615 5612 5609 5605 5602 5598 5595 5592 5588 5584 5581 5577 5573 5570 5566 5563 5559 5556 5552 5548 5544 5540 5535 5532 5530 5526 5523 5519 5516 5514 5511 5507 5503 5499 5495 5491 5488 5484 5481 5478
5614 5610 5607 5603 5599 5596 5593 5590 5586 5583 5579 5575 5572 5568 5565 5561 5558 5554 5551 5547 5543 5539 5535 5531 5527 5523 5521 5518 5514 5511 5508 5505 5502 5499 5496 5492 5488 5484 5481 5478 5475 5471
5605 5601 5598 5594 5590 5587 5584 5581 5578 5574 5570 5566 5563 5560 5557 5553 5549 5545 5542 5538 5534 5531 5527 5523 5519 5515 5513 5510 5506 5503 5500 5497 5494 5491 5488 5485 5481 5478 5475 5471 5468 5464
5596 5592 5589 5585 5582 5579 5576 5573 5569 5565 5561 5558 5555 5552 5549 5545 5541 5537 5533 5530 5526 5523 5519 5515 5511 5507 5505 5502 5498 5495 5492 5489 5487 5484 5481 5478 5474 5471 5468 5465 5461 5457
5587 5584 5580 5577 5574 5571 5568 5564 5560 5557 5553 5550 5547 5543 5540 5536 5532 5528 5525 5522 5518 5514 5511 5508 5504 5499 5496 5494 5490 5487 5484 5482 5479 5477 5474 5471 5468 5465 5462 5459 5455 5451
5578 5575 5572 5568 5565 5563 5559 5555 5552 5548 5545 5542 5538 5534 5531 5527 5524 5520 5517 5514 5510 5506 5503 5500 5496 5491 5488 5486 5483 5479 5477 5475 5472 5470 5467 5464 5461 5459 5456 5452 5448 5445
5569 5566 5563 5560 5557 5554 5550 5547 5543 5540 5537 5533 5529 5525 5522 5519 5516 5513 5509 5506 5502 5499 5495 5492 5488 5484 5480 5478 5475 5472 5470 5468 5465 5463 5460 5457 5455 5453 5450 5446 5442 5439
5560 5557 5554 5551 5548 5545 5541 5538 5535 5531 5528 5524 5521 5517 5514 5511 5508 5505 5502 5498 5495 5491 5488 5484 5481 5477 5473 5471 5468 5465 5463 5461 5458 5456 5453 5451 5448 5446 5443 5440 5436 5433